Location: Alvediston
(51.0078°N, 2.0364°W)
Time: 05:21:26
(UTC+00:00)

STARLINK-1058 - Pass Details

Date: 27 February 2020
Orbit: 549 x 550 km, 53.0° (Epoch: 09 April)

Event Time Altitude Azimuth Distance (km) Brightness Sun altitude
Rises 19:19:00 0° 234° (SW) 2,713 7.9 -15.6°
Reaches altitude 10° 19:21:15 10° 230° (SW) 1,823 6.9 -15.9°
Maximum altitude 19:25:19 56° 152° (SSE) 657 3.7 -16.6°
Enters shadow 19:26:47 35° 91° (E) 901 4.1 -16.8°
